TIME,�g�[�m���b�g���n,�t���O,�����m���b�g���n,�t���O,�g�[�mMJ�n,�t���O,�����mMJ�n,�t���O
2002/12/1 0:00,0,0,0,0,0,0,0,0
2002/12/1 0:15,0,0,0,0,0,0,0,0
2002/12/1 0:30,0,0,0,0,0,0,0,0
2002/12/1 0:45,0,0,0,0,0,0,0,0
2002/12/1 1:00,0,0,0,0,0,0,0,0
2002/12/1 1:15,0,0,0,0,0,0,0,0
2002/12/1 1:30,0,0,0,0,0,0,0,0
2002/12/1 1:45,0,0,0,0,0,0,0,0
2002/12/1 2:00,0,0,0,0,0,0,0,0
2002/12/1 2:15,0,0,0,0,0,0,0,0
2002/12/1 2:30,0,0,0,0,0,0,0,0
2002/12/1 2:45,0,0,0,0,0,0,0,0
2002/12/1 3:00,0,0,0,0,0,0,0,0
2002/12/1 3:15,0,0,0,0,0,0,0,0
2002/12/1 3:30,0,0,0,0,0,0,0,0
2002/12/1 3:45,0,0,0,0,0,0,0,0
2002/12/1 4:00,0,0,0,0,0,0,0,0
2002/12/1 4:15,0,0,0,0,0,0,0,0
2002/12/1 4:30,0,0,0,0,0,0,0,0
2002/12/1 4:45,0,0,0,0,0,0,0,0
2002/12/1 5:00,0,0,0,0,0,0,0,0
2002/12/1 5:15,0,0,0,0,0,0,0,0
2002/12/1 5:30,0,0,0,0,0,0,0,0
2002/12/1 5:45,0,0,0,0,0,0,0,0
2002/12/1 6:00,0.00002737,0,0,0,3.33,0,0,0
2002/12/1 6:15,0.00024633,0,0,0,30.06,0,0,0
2002/12/1 6:30,0.00025599,0,0,0,31.32,0,0,0
2002/12/1 6:45,0.00025921,0,0,0,31.77,0,0,0
2002/12/1 7:00,0.00025277,0,0,0,30.87,0,0,0
2002/12/1 7:15,0.0002254,0,0,0,27.65,0,0,0
2002/12/1 7:30,0,0,0,0,0,0,0,0
2002/12/1 7:45,0.00015939,0,0,0,19.55,0,0,0
2002/12/1 8:00,0.0002415,0,0,0,29.61,0,0,0
2002/12/1 8:15,0.00025277,0,0,0,30.87,0,0,0
2002/12/1 8:30,0.00023345,0,0,0,28.53,0,0,0
2002/12/1 8:45,0.00003059,0,0,0,3.81,0,0,0
2002/12/1 9:00,0,0,0,0,0,0,0,0
2002/12/1 9:15,0,0,0,0,0,0,0,0
2002/12/1 9:30,0,0,0,0,0,0,0,0
2002/12/1 9:45,0,0,0,0,0,0,0,0
2002/12/1 10:00,0,0,0.00024633,0,0,0,30.04,0
2002/12/1 10:15,0,0,0,0,0,0,0,0
2002/12/1 10:30,0,0,0,0,0,0,0,0
2002/12/1 10:45,0,0,0,0,0,0,0,0
2002/12/1 11:00,0,0,0.0000966,0,0,0,11.86,0
2002/12/1 11:15,0,0,0,0,0,0,0,0
2002/12/1 11:30,0,0,0,0,0,0,0,0
2002/12/1 11:45,0,0,0,0,0,0,0,0
2002/12/1 12:00,0,0,0,0,0,0,0,0
2002/12/1 12:15,0,0,0,0,0,0,0,0
2002/12/1 12:30,0,0,0,0,0,0,0,0
2002/12/1 12:45,0,0,0,0,0,0,0,0
2002/12/1 13:00,0,0,0,0,0,0,0,0
2002/12/1 13:15,0,0,0,0,0,0,0,0
2002/12/1 13:30,0,0,0,0,0,0,0,0
2002/12/1 13:45,0,0,0,0,0,0,0,0
2002/12/1 14:00,0,0,0.00011592,0,0,0,14.23,0
2002/12/1 14:15,0,0,0.0000644,0,0,0,7.82,0
2002/12/1 14:30,0,0,0,0,0,0,0,0
2002/12/1 14:45,0,0,0,0,0,0,0,0
2002/12/1 15:00,0,0,0,0,0,0,0,0
2002/12/1 15:15,0,0,0,0,0,0,0,0
2002/12/1 15:30,0,0,0,0,0,0,0,0
2002/12/1 15:45,0,0,0,0,0,0,0,0
2002/12/1 16:00,0,0,0,0,0,0,0,0
2002/12/1 16:15,0,0,0,0,0,0,0,0
2002/12/1 16:30,0,0,0,0,0,0,0,0
2002/12/1 16:45,0.00013685,0,0,0,16.83,0,0,0
2002/12/1 17:00,0.00025438,0,0,0,31.03,0,0,0
2002/12/1 17:15,0.00025599,0,0,0,31.36,0,0,0
2002/12/1 17:30,0.00002415,0,0,0,2.98,0,0,0
2002/12/1 17:45,0,0,0,0,0,0,0,0
2002/12/1 18:00,0.00001932,0,0,0,2.41,0,0,0
2002/12/1 18:15,0.00023506,0,0.00007728,0,28.81,0,9.36,0
2002/12/1 18:30,0.00026082,0,0.0000161,0,31.93,0,1.99,0
2002/12/1 18:45,0.00023667,0,0.00002415,0,28.91,0,3,0
2002/12/1 19:00,0.00018837,0,0.00000805,0,23,0,1.04,0
2002/12/1 19:15,0.00000483,0,0,0,0.64,0,0,0
2002/12/1 19:30,0,0,0,0,0,0,0,0
2002/12/1 19:45,0.00010304,0,0.00016744,0,12.62,0,20.47,0
2002/12/1 20:00,0.00013363,0,0.00002898,0,16.36,0,3.62,0
2002/12/1 20:15,0,0,0,0,0,0,0,0
2002/12/1 20:30,0,0,0.00102396,0,0,0,125.26,0
2002/12/1 20:45,0.00001771,0,0,0,2.1,0,0,0
2002/12/1 21:00,0.00010143,0,0.00000322,0,12.38,0,0.43,0
2002/12/1 21:15,0,0,0.00014973,0,0,0,18.29,0
2002/12/1 21:30,0,0,0.00014168,0,0,0,17.35,0
2002/12/1 21:45,0,0,0,0,0,0,0,0
2002/12/1 22:00,0,0,0,0,0,0,0,0
2002/12/1 22:15,0,0,0,0,0,0,0,0
2002/12/1 22:30,0,0,0,0,0,0,0,0
2002/12/1 22:45,0,0,0,0,0,0,0,0
2002/12/1 23:00,0,0,0,0,0,0,0,0
2002/12/1 23:15,0,0,0,0,0,0,0,0
2002/12/1 23:30,0,0,0,0,0,0,0,0
2002/12/1 23:45,0,0,0,0,0,0,0,0
2002/12/2 0:00,0,0,0,0,0,0,0,0
2002/12/2 0:15,0,0,0,0,0,0,0,0
2002/12/2 0:30,0,0,0,0,0,0,0,0
2002/12/2 0:45,0,0,0,0,0,0,0,0
2002/12/2 1:00,0,0,0,0,0,0,0,0
2002/12/2 1:15,0,0,0,0,0,0,0,0
2002/12/2 1:30,0,0,0,0,0,0,0,0
2002/12/2 1:45,0,0,0,0,0,0,0,0
2002/12/2 2:00,0,0,0,0,0,0,0,0
2002/12/2 2:15,0,0,0,0,0,0,0,0
2002/12/2 2:30,0,0,0,0,0,0,0,0
2002/12/2 2:45,0,0,0,0,0,0,0,0
2002/12/2 3:00,0,0,0,0,0,0,0,0
2002/12/2 3:15,0,0,0,0,0,0,0,0
2002/12/2 3:30,0,0,0,0,0,0,0,0
2002/12/2 3:45,0,0,0,0,0,0,0,0
2002/12/2 4:00,0,0,0,0,0,0,0,0
2002/12/2 4:15,0,0,0,0,0,0,0,0
2002/12/2 4:30,0,0,0,0,0,0,0,0
2002/12/2 4:45,0,0,0,0,0,0,0,0
2002/12/2 5:00,0.00002576,0,0,0,3.17,0,0,0
2002/12/2 5:15,0.00025116,0,0,0,30.7,0,0,0
2002/12/2 5:30,0.00025438,0,0,0,31.15,0,0,0
2002/12/2 5:45,0.00026243,0,0,0,32.17,0,0,0
2002/12/2 6:00,0.00025277,0,0,0,30.87,0,0,0
2002/12/2 6:15,0.00024955,0,0,0,30.58,0,0,0
2002/12/2 6:30,0.00024794,0,0,0,30.35,0,0,0
2002/12/2 6:45,0.00022379,0,0.0000161,0,27.35,0,2.06,0
2002/12/2 7:00,0.00023023,0,0.0000644,0,28.2,0,7.89,0
2002/12/2 7:15,0.00022701,0,0,0,27.72,0,0,0
2002/12/2 7:30,0.00021252,0,0,0,26.07,0,0,0
2002/12/2 7:45,0.00021252,0,0,0,25.97,0,0,0
2002/12/2 8:00,0.00013041,0,0.00028175,0,16.05,0,34.48,0
2002/12/2 8:15,0,0,0.00005313,0,0,0,6.41,0
2002/12/2 8:30,0,0,0,0,0,0,0,0
2002/12/2 8:45,0.00002737,0,0,0,3.43,0,0,0
2002/12/2 9:00,0.00023345,0,0,0,28.6,0,0,0
2002/12/2 9:15,0.00004347,0,0,0,5.25,0,0,0
2002/12/2 9:30,0,0,0,0,0,0,0,0
2002/12/2 9:45,0,0,0,0,0,0,0,0
2002/12/2 10:00,0,0,0,0,0,0,0,0
2002/12/2 10:15,0,0,0,0,0,0,0,0
2002/12/2 10:30,0,0,0,0,0,0,0,0
2002/12/2 10:45,0,0,0,0,0,0,0,0
2002/12/2 11:00,0,0,0.00018032,0,0.02,0,22,0
2002/12/2 11:15,0,0,0.00000644,0,0,0,0.83,0
2002/12/2 11:30,0,0,0,0,0,0,0,0
2002/12/2 11:45,0,0,0,0,0,0,0,0
2002/12/2 12:00,0,0,0,0,0,0,0,0
2002/12/2 12:15,0,0,0,0,0,0,0,0
2002/12/2 12:30,0.00011753,0,0,0,14.46,0,0,0
2002/12/2 12:45,0.00024633,0,0.00009338,0,30.06,0,11.39,0
2002/12/2 13:00,0.0002576,0,0,0,31.48,0,0,0
2002/12/2 13:15,0.00013363,0,0,0,16.4,0,0,0
2002/12/2 13:30,0,0,0,0,0,0,0,0
2002/12/2 13:45,0,0,0,0,0,0,0,0
2002/12/2 14:00,0,0,0,0,0,0,0,0
2002/12/2 14:15,0.00000322,0,0,0,0.47,0,0,0
2002/12/2 14:30,0,0,0,0,0,0,0,0
2002/12/2 14:45,0,0,0,0,0,0,0,0
2002/12/2 15:00,0,0,0,0,0,0,0,0
2002/12/2 15:15,0,0,0,0,0,0,0,0
2002/12/2 15:30,0,0,0,0,0,0,0,0
2002/12/2 15:45,0,0,0,0,0,0,0,0
2002/12/2 16:00,0.00016744,0,0,0,20.47,0,0,0
2002/12/2 16:15,0.00014329,0,0,0,17.54,0,0,0
2002/12/2 16:30,0,0,0,0,0,0,0,0
2002/12/2 16:45,0,0,0,0,0,0,0,0
2002/12/2 17:00,0.00015134,0,0,0,18.55,0,0,0
2002/12/2 17:15,0.00024794,0,0,0,30.37,0,0,0
2002/12/2 17:30,0.00025116,0,0,0,30.8,0,0,0
2002/12/2 17:45,0.00024472,0,0,0,30.02,0,0,0
2002/12/2 18:00,0.00019642,0,0.0000644,0,24.08,0,7.92,0
2002/12/2 18:15,0,0,0,0,0,0,0,0
2002/12/2 18:30,0.00004669,0,0,0,5.67,0,0,0
2002/12/2 18:45,0.00019964,0,0,0,24.41,0,0,0
2002/12/2 19:00,0,0,0,0,0,0,0,0
2002/12/2 19:15,0.00007728,0,0,0,9.48,0,0,0
2002/12/2 19:30,0.00021735,0,0,0,26.49,0,0,0
2002/12/2 19:45,0,0,0,0,0,0,0,0
2002/12/2 20:00,0,0,0,0,0,0,0,0
2002/12/2 20:15,0.00006923,0,0.00039284,0,8.39,0,48.12,0
2002/12/2 20:30,0.00011109,0,0.00046046,0,13.5,0,56.42,0
2002/12/2 20:45,0.00010787,0,0.00035903,0,13.24,0,43.84,0
2002/12/2 21:00,0.00025116,0,0.00018998,0,30.7,0,23.23,0
2002/12/2 21:15,0.00011431,0,0.00009982,0,13.94,0,12.15,0
2002/12/2 21:30,0.00004025,0,0,0,5.01,0,0,0
2002/12/2 21:45,0.0002093,0,0.00008372,0,25.6,0,10.19,0
2002/12/2 22:00,0,0,0.00003864,0,0,0,4.82,0
2002/12/2 22:15,0.00014651,0,0.00009016,0,18.01,0,10.99,0
2002/12/2 22:30,0.00006279,0,0,0,7.73,0,0,0
2002/12/2 22:45,0,0,0,0,0,0,0,0
2002/12/2 23:00,0,0,0,0,0,0,0,0
2002/12/2 23:15,0,0,0,0,0,0,0,0
2002/12/2 23:30,0,0,0,0,0,0,0,0
2002/12/2 23:45,0,0,0,0,0,0,0,0
2002/12/3 0:00,0,0,0,0,0,0,0,0
2002/12/3 0:15,0,0,0,0,0,0,0,0
2002/12/3 0:30,0,0,0,0,0,0,0,0
2002/12/3 0:45,0,0,0.00009177,0,0,0,11.23,0
2002/12/3 1:00,0,0,0.00005152,0,0,0,6.38,0
2002/12/3 1:15,0,0,0,0,0,0,0,0
2002/12/3 1:30,0,0,0,0,0,0,0,0
2002/12/3 1:45,0,0,0,0,0,0,0,0
2002/12/3 2:00,0,0,0,0,0,0,0,0
2002/12/3 2:15,0,0,0,0,0,0,0,0
2002/12/3 2:30,0,0,0,0,0,0,0,0
2002/12/3 2:45,0,0,0,0,0,0,0,0
2002/12/3 3:00,0,0,0,0,0,0,0,0
2002/12/3 3:15,0,0,0,0,0,0,0,0
2002/12/3 3:30,0,0,0,0,0,0,0,0
2002/12/3 3:45,0,0,0,0,0,0,0,0
2002/12/3 4:00,0,0,0,0,0,0,0,0
2002/12/3 4:15,0,0,0,0,0,0,0,0
2002/12/3 4:30,0,0,0,0,0,0,0,0
2002/12/3 4:45,0,0,0,0,0,0,0,0
2002/12/3 5:00,0.00002576,0,0,0,3.14,0,0,0
2002/12/3 5:15,0.00024794,0,0,0,30.25,0,0,0
2002/12/3 5:30,0.00025116,0,0,0,30.77,0,0,0
2002/12/3 5:45,0.0002576,0,0,0,31.53,0,0,0
2002/12/3 6:00,0.00026082,0,0,0,31.88,0,0,0
2002/12/3 6:15,0.00025116,0,0,0,30.7,0,0,0
2002/12/3 6:30,0.0002415,0,0,0,29.59,0,0,0
2002/12/3 6:45,0.00022701,0,0.0000644,0,27.87,0,7.92,0
2002/12/3 7:00,0.00023023,0,0.00002254,0,28.2,0,2.67,0
2002/12/3 7:15,0.00021574,0,0.00001127,0,26.31,0,1.3,0
2002/12/3 7:30,0.00020769,0,0,0,25.31,0,0,0
2002/12/3 7:45,0,0,0,0,0,0,0,0
2002/12/3 8:00,0,0,0.00008533,0,0,0,10.42,0
2002/12/3 8:15,0,0,0,0,0,0,0,0
2002/12/3 8:30,0,0,0,0,0,0,0,0
2002/12/3 8:45,0,0,0,0,0,0,0,0
2002/12/3 9:00,0.00001771,0,0,0,2.15,0,0,0
2002/12/3 9:15,0,0,0,0,0,0,0,0
2002/12/3 9:30,0,0,0,0,0,0,0,0
2002/12/3 9:45,0,0,0.00008855,0,0,0,10.9,0
2002/12/3 10:00,0,0,0,0,0,0,0,0
2002/12/3 10:15,0,0,0,0,0,0,0,0
2002/12/3 10:30,0,0,0,0,0,0,0,0
2002/12/3 10:45,0,0,0,0,0,0,0,0
2002/12/3 11:00,0,0,0,0,0,0,0,0
2002/12/3 11:15,0,0,0,0,0,0,0,0
2002/12/3 11:30,0,0,0,0,0,0,0,0
2002/12/3 11:45,0,0,0,0,0,0,0,0
2002/12/3 12:00,0,0,0,0,0,0,0,0
2002/12/3 12:15,0,0,0,0,0,0,0,0
2002/12/3 12:30,0,0,0.00009016,0,0,0,11.11,0
2002/12/3 12:45,0,0,0.00000161,0,0,0,0.24,0
2002/12/3 13:00,0,0,0,0,0,0,0,0
2002/12/3 13:15,0,0,0,0,0,0,0,0
2002/12/3 13:30,0,0,0.00002415,0,0,0,3.03,0
2002/12/3 13:45,0,0,0,0,0,0,0,0
2002/12/3 14:00,0,0,0,0,0,0,0,0
2002/12/3 14:15,0,0,0,0,0,0,0,0
2002/12/3 14:30,0,0,0,0,0,0,0,0
2002/12/3 14:45,0,0,0,0,0,0,0,0
2002/12/3 15:00,0,0,0,0,0,0,0,0
2002/12/3 15:15,0,0,0,0,0,0,0,0
2002/12/3 15:30,0,0,0,0,0,0,0,0
2002/12/3 15:45,0,0,0,0,0,0,0,0
2002/12/3 16:00,0,0,0,0,0,0,0,0
2002/12/3 16:15,0,0,0,0,0,0,0,0
2002/12/3 16:30,0.00001449,0,0,0,1.68,0,0,0
2002/12/3 16:45,0.00023345,0,0,0,28.6,0,0,0
2002/12/3 17:00,0.00023828,0,0,0,29.19,0,0,0
2002/12/3 17:15,0.00025277,0,0,0,31.01,0,0,0
2002/12/3 17:30,0.00024472,0,0,0,29.92,0,0,0
2002/12/3 17:45,0.00008372,0,0,0,10.21,0,0,0
2002/12/3 18:00,0,0,0.00000161,0,0.02,0,0.14,0
2002/12/3 18:15,0.00010787,0,0.00007889,0,13.19,0,9.67,0
2002/12/3 18:30,0.00004347,0,0,0,5.22,0,0,0
2002/12/3 18:45,0,0,0.00007406,0,0,0,9.15,0
2002/12/3 19:00,0.00004186,0,0.00076153,0,5.06,0,93.12,0
2002/12/3 19:15,0.00024472,0,0.00028497,0,29.87,0,34.84,0
2002/12/3 19:30,0.00025599,0,0.00041699,0,31.36,0,51.1,0
2002/12/3 19:45,0.00002576,0,0.00011109,0,3.21,0,13.52,0
2002/12/3 20:00,0,0,0,0,0,0,0,0
2002/12/3 20:15,0,0,0.00002254,0,0,0,2.79,0
2002/12/3 20:30,0,0,0.00018515,0,0,0,22.64,0
2002/12/3 20:45,0,0,0,0,0,0,0,0
2002/12/3 21:00,0,0,0,0,0,0,0,0
2002/12/3 21:15,0,0,0,0,0,0,0,0
2002/12/3 21:30,0,0,0,0,0,0,0,0
2002/12/3 21:45,0,0,0,0,0,0,0,0
2002/12/3 22:00,0,0,0,0,0,0,0,0
2002/12/3 22:15,0,0,0,0,0,0,0,0
2002/12/3 22:30,0,0,0,0,0,0,0,0
2002/12/3 22:45,0,0,0,0,0,0,0,0
2002/12/3 23:00,0,0,0,0,0,0,0,0
2002/12/3 23:15,0,0,0,0,0,0,0,0
2002/12/3 23:30,0,0,0,0,0,0,0,0
2002/12/3 23:45,0,0,0,0,0,0,0,0
2002/12/4 0:00,0,0,0,0,0,0,0,0
2002/12/4 0:15,0,0,0,0,0,0,0,0
2002/12/4 0:30,0,0,0,0,0,0,0,0
2002/12/4 0:45,0,0,0.00031395,0,0.02,0,38.38,0
2002/12/4 1:00,0,0,0,0,0,0,0,0
2002/12/4 1:15,0,0,0,0,0,0,0,0
2002/12/4 1:30,0,0,0,0,0,0,0,0
2002/12/4 1:45,0,0,0,0,0,0,0,0
2002/12/4 2:00,0,0,0,0,0,0,0,0
2002/12/4 2:15,0,0,0,0,0,0,0,0
2002/12/4 2:30,0,0,0,0,0,0,0,0
2002/12/4 2:45,0,0,0,0,0,0,0,0
2002/12/4 3:00,0,0,0,0,0,0,0,0
2002/12/4 3:15,0,0,0,0,0,0,0,0
2002/12/4 3:30,0,0,0,0,0,0,0,0
2002/12/4 3:45,0,0,0,0,0,0,0,0
2002/12/4 4:00,0,0,0,0,0,0,0,0
2002/12/4 4:15,0,0,0,0,0,0,0,0
2002/12/4 4:30,0,0,0,0,0,0,0,0
2002/12/4 4:45,0,0,0,0,0,0,0,0
2002/12/4 5:00,0.00002415,0,0,0,2.93,0,0,0
2002/12/4 5:15,0.00023989,0,0,0,29.28,0,0,0
2002/12/4 5:30,0.00024794,0,0,0,30.37,0,0,0
2002/12/4 5:45,0.00025438,0,0,0,31.15,0,0,0
2002/12/4 6:00,0.00025438,0,0,0,31.17,0,0,0
2002/12/4 6:15,0.00024472,0,0,0,29.92,0,0,0
2002/12/4 6:30,0.00024472,0,0,0,29.92,0,0,0
2002/12/4 6:45,0.00021574,0,0.00002093,0,26.45,0,2.48,0
2002/12/4 7:00,0.00021252,0,0.00013524,0,26,0,16.5,0
2002/12/4 7:15,0.00021413,0,0,0,26.21,0,0,0
2002/12/4 7:30,0.00021091,0,0,0,25.71,0,0,0
2002/12/4 7:45,0.00016261,0,0,0,19.83,0,0,0
2002/12/4 8:00,0.00001288,0,0,0,1.65,0,0,0
2002/12/4 8:15,0.00020769,0,0.00008211,0,25.38,0,10.09,0
2002/12/4 8:30,0.00004347,0,0,0,5.32,0,0,0
2002/12/4 8:45,0,0,0,0,0,0,0,0
2002/12/4 9:00,0.00008211,0,0,0,9.97,0,0,0
2002/12/4 9:15,0.00023667,0,0,0,28.86,0,0,0
2002/12/4 9:30,0.00007567,0,0,0,9.34,0,0,0
2002/12/4 9:45,0,0,0,0,0,0,0,0
2002/12/4 10:00,0,0,0,0,0,0,0,0
2002/12/4 10:15,0,0,0,0,0,0,0,0
2002/12/4 10:30,0,0,0,0,0,0,0,0
2002/12/4 10:45,0,0,0,0,0,0,0,0
2002/12/4 11:00,0,0,0,0,0,0,0,0
2002/12/4 11:15,0,0,0,0,0,0,0,0
2002/12/4 11:30,0,0,0,0,0,0,0,0
2002/12/4 11:45,0,0,0,0,0,0,0,0
2002/12/4 12:00,0,0,0,0,0,0,0,0
2002/12/4 12:15,0,0,0,0,0,0,0,0
2002/12/4 12:30,0,0,0,0,0,0,0,0
2002/12/4 12:45,0,0,0,0,0,0,0,0
2002/12/4 13:00,0.00008211,0,0,0,10.14,0,0,0
2002/12/4 13:15,0.00025277,0,0,0,30.87,0,0,0
2002/12/4 13:30,0.00002737,0,0,0,3.36,0,0,0
2002/12/4 13:45,0,0,0.000161,0,0.02,0,19.69,0
2002/12/4 14:00,0,0,0,0,0,0,0,0
2002/12/4 14:15,0,0,0,0,0,0,0,0
2002/12/4 14:30,0,0,0,0,0,0,0,0
2002/12/4 14:45,0.0001127,0,0,0,13.78,0,0,0
2002/12/4 15:00,0,0,0,0,0,0,0,0
2002/12/4 15:15,0.0000322,0,0,0,3.85,0,0,0
2002/12/4 15:30,0.00012236,0,0,0,14.89,0,0,0
2002/12/4 15:45,0,0,0,0,0,0,0,0
2002/12/4 16:00,0,0,0,0,0,0,0,0
2002/12/4 16:15,0.00012236,0,0,0,15.03,0,0,0
2002/12/4 16:30,0,0,0,0,0,0,0,0
2002/12/4 16:45,0.00006279,0,0,0,7.61,0,0,0
2002/12/4 17:00,0.00024311,0,0,0,29.76,0,0,0
2002/12/4 17:15,0.00025438,0,0.00012719,0,31.2,0,15.55,0
2002/12/4 17:30,0.00023989,0,0,0,29.28,0,0,0
2002/12/4 17:45,0.00012558,0,0,0,15.39,0,0,0
2002/12/4 18:00,0,0,0,0,0,0,0,0
2002/12/4 18:15,0,0,0,0,0,0,0,0
2002/12/4 18:30,0,0,0,0,0,0,0,0
2002/12/4 18:45,0.00014973,0,0,0,18.25,0,0,0
2002/12/4 19:00,0.00002898,0,0,0,3.55,0,0,0
2002/12/4 19:15,0,0,0.00011109,0,0.02,0,13.5,0
2002/12/4 19:30,0,0,0.00009338,0,0,0,11.37,0
2002/12/4 19:45,0,0,0.00096761,0,0,0,118.39,0
2002/12/4 20:00,0.00002576,0,0.00041055,0,3.24,0,50.18,0
2002/12/4 20:15,0.00023828,0,0.00008694,0,29.14,0,10.64,0
2002/12/4 20:30,0.00017549,0,0,0,21.51,0,0,0
2002/12/4 20:45,0,0,0,0,0,0,0,0
2002/12/4 21:00,0,0,0,0,0,0,0,0
2002/12/4 21:15,0,0,0,0,0,0,0,0
2002/12/4 21:30,0,0,0,0,0,0,0,0
2002/12/4 21:45,0,0,0,0,0,0,0,0
2002/12/4 22:00,0,0,0,0,0,0,0,0
2002/12/4 22:15,0,0,0,0,0,0,0,0
2002/12/4 22:30,0,0,0,0,0,0,0,0
2002/12/4 22:45,0,0,0,0,0,0,0,0
2002/12/4 23:00,0,0,0,0,0,0,0,0
2002/12/4 23:15,0,0,0,0,0,0,0,0
2002/12/4 23:30,0,0,0,0,0,0,0,0
2002/12/4 23:45,0,0,0,0,0,0,0,0
2002/12/5 0:00,0,0,0,0,0,0,0,0
2002/12/5 0:15,0,0,0,0,0,0,0,0
2002/12/5 0:30,0,0,0,0,0,0,0,0
2002/12/5 0:45,0,0,0,0,0,0,0,0
2002/12/5 1:00,0,0,0,0,0,0,0,0
2002/12/5 1:15,0,0,0,0,0,0,0,0
2002/12/5 1:30,0,0,0,0,0,0,0,0
2002/12/5 1:45,0,0,0,0,0,0,0,0
2002/12/5 2:00,0,0,0,0,0,0,0,0
2002/12/5 2:15,0,0,0,0,0,0,0,0
2002/12/5 2:30,0,0,0,0,0,0,0,0
2002/12/5 2:45,0,0,0,0,0,0,0,0
2002/12/5 3:00,0,0,0,0,0,0,0,0
2002/12/5 3:15,0,0,0,0,0,0,0,0
2002/12/5 3:30,0,0,0,0,0,0,0,0
2002/12/5 3:45,0,0,0,0,0,0,0,0
2002/12/5 4:00,0,0,0,0,0,0,0,0
2002/12/5 4:15,0,0,0,0,0,0,0,0
2002/12/5 4:30,0,0,0,0,0,0,0,0
2002/12/5 4:45,0,0,0,0,0,0,0,0
2002/12/5 5:00,0.00002254,0,0,0,2.79,0,0,0
2002/12/5 5:15,0.00024311,0,0,0,29.71,0,0,0
2002/12/5 5:30,0.00024955,0,0,0,30.61,0,0,0
2002/12/5 5:45,0.00025921,0,0,0,31.74,0,0,0
2002/12/5 6:00,0.00024311,0,0,0,29.76,0,0,0
2002/12/5 6:15,0.0002254,0,0.00012236,0,27.58,0,14.94,0
2002/12/5 6:30,0.00018998,0,0.00001127,0,23.21,0,1.3,0
2002/12/5 6:45,0.00019964,0,0.00001771,0,24.41,0,2.1,0
2002/12/5 7:00,0.00020769,0,0,0,25.41,0,0,0
2002/12/5 7:15,0.0001288,0,0.00003059,0,15.84,0,3.66,0
2002/12/5 7:30,0,0,0.00001449,0,0,0,1.75,0
2002/12/5 7:45,0,0,0,0,0,0,0,0
2002/12/5 8:00,0.00006118,0,0,0,7.4,0,0,0
2002/12/5 8:15,0,0,0.00044758,0,0,0,54.76,0
2002/12/5 8:30,0,0,0,0,0,0,0,0
2002/12/5 8:45,0,0,0,0,0,0,0,0
2002/12/5 9:00,0,0,0,0,0,0,0,0
2002/12/5 9:15,0,0,0,0,0,0,0,0
2002/12/5 9:30,0,0,0,0,0,0,0,0
2002/12/5 9:45,0,0,0,0,0,0,0,0
2002/12/5 10:00,0,0,0,0,0,0,0,0
2002/12/5 10:15,0,0,0.00007728,0,0,0,9.52,0
2002/12/5 10:30,0,0,0.00001932,0,0,0,2.27,0
2002/12/5 10:45,0,0,0,0,0,0,0,0
2002/12/5 11:00,0,0,0,0,0,0,0,0
2002/12/5 11:15,0,0,0,0,0,0,0,0
2002/12/5 11:30,0,0,0,0,0,0,0,0
2002/12/5 11:45,0,0,0,0,0,0,0,0
2002/12/5 12:00,0,0,0,0,0,0,0,0
2002/12/5 12:15,0,0,0,0,0,0,0,0
2002/12/5 12:30,0,0,0,0,0,0,0,0
2002/12/5 12:45,0,0,0,0,0,0,0,0
2002/12/5 13:00,0,0,0,0,0,0,0,0
2002/12/5 13:15,0,0,0,0,0,0,0,0
2002/12/5 13:30,0,0,0,0,0,0,0,0
2002/12/5 13:45,0,0,0,0,0,0,0,0
2002/12/5 14:00,0,0,0,0,0,0,0,0
2002/12/5 14:15,0,0,0,0,0,0,0,0
2002/12/5 14:30,0,0,0,0,0,0,0,0
2002/12/5 14:45,0,0,0,0,0,0,0,0
2002/12/5 15:00,0,0,0,0,0,0,0,0
2002/12/5 15:15,0,0,0,0,0,0,0,0
2002/12/5 15:30,0,0,0,0,0,0,0,0
2002/12/5 15:45,0,0,0,0,0,0,0,0
2002/12/5 16:00,0,0,0.00011914,0,0,0,14.65,0
2002/12/5 16:15,0,0,0.00007889,0,0,0,9.69,0
2002/12/5 16:30,0,0,0,0,0,0,0,0
2002/12/5 16:45,0,0,0,0,0,0,0,0
2002/12/5 17:00,0,0,0,0,0,0,0,0
2002/12/5 17:15,0.00008372,0,0,0,10.19,0,0,0
2002/12/5 17:30,0.00024633,0,0,0,30.18,0,0,0
2002/12/5 17:45,0.00023667,0,0,0,28.95,0,0,0
2002/12/5 18:00,0.00023667,0,0,0,28.95,0,0,0
2002/12/5 18:15,0.00024472,0,0.00005313,0,30.02,0,6.52,0
2002/12/5 18:30,0.00018676,0,0.00002254,0,22.83,0,2.84,0
2002/12/5 18:45,0,0,0,0,0,0,0,0
2002/12/5 19:00,0,0,0,0,0,0,0,0
2002/12/5 19:15,0.0000161,0,0,0,1.89,0,0,0
2002/12/5 19:30,0.00020769,0,0,0,25.41,0,0,0
2002/12/5 19:45,0,0,0.00001771,0,0,0,2.15,0
2002/12/5 20:00,0,0,0.00090482,0,0.02,0,110.63,0
2002/12/5 20:15,0.00015134,0,0.00008694,0,18.46,0,10.59,0
2002/12/5 20:30,0.00023989,0,0.00027531,0,29.31,0,33.68,0
2002/12/5 20:45,0.00024794,0,0.00022862,0,30.3,0,28.03,0
2002/12/5 21:00,0.00013846,0,0.00006762,0,16.95,0,8.22,0
2002/12/5 21:15,0,0,0,0,0,0,0,0
2002/12/5 21:30,0,0,0,0,0,0,0,0
2002/12/5 21:45,0,0,0,0,0,0,0,0
2002/12/5 22:00,0,0,0,0,0,0,0,0
2002/12/5 22:15,0,0,0,0,0,0,0,0
2002/12/5 22:30,0,0,0,0,0,0,0,0
2002/12/5 22:45,0,0,0,0,0,0,0,0
2002/12/5 23:00,0,0,0,0,0,0,0,0
2002/12/5 23:15,0,0,0,0,0,0,0,0
2002/12/5 23:30,0,0,0,0,0,0,0,0
2002/12/5 23:45,0,0,0,0,0,0,0,0
2002/12/6 0:00,0,0,0,0,0,0,0,0
2002/12/6 0:15,0,0,0,0,0,0,0,0
2002/12/6 0:30,0,0,0,0,0,0,0,0
2002/12/6 0:45,0,0,0,0,0,0,0,0
2002/12/6 1:00,0,0,0,0,0,0,0,0
2002/12/6 1:15,0,0,0,0,0,0,0,0
2002/12/6 1:30,0,0,0,0,0,0,0,0
2002/12/6 1:45,0,0,0,0,0,0,0,0
2002/12/6 2:00,0,0,0,0,0,0,0,0
2002/12/6 2:15,0,0,0,0,0,0,0,0
2002/12/6 2:30,0,0,0,0,0,0,0,0
2002/12/6 2:45,0,0,0,0,0,0,0,0
2002/12/6 3:00,0,0,0,0,0,0,0,0
2002/12/6 3:15,0,0,0,0,0,0,0,0
2002/12/6 3:30,0,0,0,0,0,0,0,0
2002/12/6 3:45,0,0,0,0,0,0,0,0
2002/12/6 4:00,0,0,0,0,0,0,0,0
2002/12/6 4:15,0,0,0,0,0,0,0,0
2002/12/6 4:30,0,0,0,0,0,0,0,0
2002/12/6 4:45,0,0,0,0,0,0,0,0
2002/12/6 5:00,0.00002254,0,0,0,2.74,0,0,0
2002/12/6 5:15,0.00024633,0,0,0,30.11,0,0,0
2002/12/6 5:30,0.0002415,0,0,0,29.45,0,0,0
2002/12/6 5:45,0.00024472,0,0,0,29.97,0,0,0
2002/12/6 6:00,0.0002415,0,0,0,29.54,0,0,0
2002/12/6 6:15,0.0002415,0,0,0,29.59,0,0,0
2002/12/6 6:30,0.00023828,0,0.00007889,0,29.14,0,9.6,0
2002/12/6 6:45,0.00016422,0,0.00007406,0,20,0,9.03,0
2002/12/6 7:00,0.00021735,0,0,0,26.61,0,0,0
2002/12/6 7:15,0.00023667,0,0,0,28.91,0,0,0
2002/12/6 7:30,0.00020608,0,0,0,25.12,0,0,0
2002/12/6 7:45,0.0002093,0,0.00006118,0,25.55,0,7.49,0
2002/12/6 8:00,0.0001127,0,0,0,13.76,0,0,0
2002/12/6 8:15,0,0,0.0002898,0,0,0,35.36,0
2002/12/6 8:30,0,0,0,0,0,0,0,0
2002/12/6 8:45,0,0,0,0,0,0,0,0
2002/12/6 9:00,0,0,0,0,0,0,0,0
2002/12/6 9:15,0,0,0,0,0,0,0,0
2002/12/6 9:30,0,0,0,0,0,0,0,0
2002/12/6 9:45,0,0,0,0,0,0,0,0
2002/12/6 10:00,0,0,0,0,0,0,0,0
2002/12/6 10:15,0.00003703,0,0,0,4.44,0,0,0
2002/12/6 10:30,0.00018837,0,0,0,23.09,0,0,0
2002/12/6 10:45,0,0,0,0,0,0,0,0
2002/12/6 11:00,0,0,0,0,0,0,0,0
2002/12/6 11:15,0.00001288,0,0,0,1.58,0,0,0
2002/12/6 11:30,0.00023184,0,0.00007406,0,28.43,0,9.03,0
2002/12/6 11:45,0.00019159,0,0,0,23.45,0,0,0
2002/12/6 12:00,0,0,0,0,0,0,0,0
2002/12/6 12:15,0.00003059,0,0,0,3.66,0,0,0
2002/12/6 12:30,0.00016422,0,0,0,20.16,0,0,0
2002/12/6 12:45,0,0,0,0,0,0,0,0
2002/12/6 13:00,0.00005796,0,0,0,7.04,0,0,0
2002/12/6 13:15,0.00023667,0,0,0,29.02,0,0,0
2002/12/6 13:30,0.00016422,0,0.00011914,0,20.04,0,14.58,0
2002/12/6 13:45,0,0,0,0,0,0,0,0
2002/12/6 14:00,0,0,0,0,0,0,0,0
2002/12/6 14:15,0.00007728,0,0,0,9.5,0,0,0
2002/12/6 14:30,0.0000644,0,0,0,7.89,0,0,0
2002/12/6 14:45,0.00001288,0,0,0,1.58,0,0,0
2002/12/6 15:00,0.00000644,0,0,0,0.87,0,0,0
2002/12/6 15:15,0,0,0,0,0,0,0,0
2002/12/6 15:30,0,0,0,0,0,0,0,0
2002/12/6 15:45,0,0,0,0,0,0,0,0
2002/12/6 16:00,0,0,0,0,0,0,0,0
2002/12/6 16:15,0,0,0,0,0,0,0,0
2002/12/6 16:30,0.0000161,0,0,0,1.89,0,0,0
2002/12/6 16:45,0.00023989,0,0,0,29.4,0,0,0
2002/12/6 17:00,0.00009338,0,0,0,11.39,0,0,0
2002/12/6 17:15,0.00017227,0,0,0,21.06,0,0,0
2002/12/6 17:30,0.00025599,0,0,0,31.34,0,0,0
2002/12/6 17:45,0.0002576,0,0,0,31.58,0,0,0
2002/12/6 18:00,0.00015134,0,0,0,18.51,0,0,0
2002/12/6 18:15,0,0,0,0,0,0,0,0
2002/12/6 18:30,0.00001932,0,0,0,2.34,0,0,0
2002/12/6 18:45,0.00023184,0,0,0,28.31,0,0,0
2002/12/6 19:00,0.00024794,0,0,0,30.25,0,0,0
2002/12/6 19:15,0.0001771,0,0.00014329,0,21.67,0,17.44,0
2002/12/6 19:30,0,0,0.00094668,0,0.05,0,115.81,0
2002/12/6 19:45,0.00020447,0,0.00029302,0,24.96,0,35.88,0
2002/12/6 20:00,0.00025277,0,0.00019964,0,30.96,0,24.34,0
2002/12/6 20:15,0.0000161,0,0,0,2.03,0,0,0
2002/12/6 20:30,0.00016422,0,0,0,20.18,0,0,0
2002/12/6 20:45,0.00010465,0,0,0,12.86,0,0,0
2002/12/6 21:00,0.00016744,0,0.00003864,0,20.49,0,4.77,0
2002/12/6 21:15,0.00000644,0,0.00006923,0,0.83,0,8.56,0
2002/12/6 21:30,0,0,0,0,0.02,0,0,0
2002/12/6 21:45,0,0,0,0,0,0,0,0
2002/12/6 22:00,0,0,0,0,0,0,0,0
2002/12/6 22:15,0,0,0,0,0,0,0,0
2002/12/6 22:30,0,0,0,0,0,0,0,0
2002/12/6 22:45,0.00015134,0,0,0,18.51,0,0,0
2002/12/6 23:00,0.0002415,0,0,0,29.57,0,0,0
2002/12/6 23:15,0.0000322,0,0,0,3.88,0,0,0
2002/12/6 23:30,0.00001288,0,0,0,1.49,0,0,0
2002/12/6 23:45,0.00021574,0,0,0,26.47,0,0,0
2002/12/7 0:00,0.00003059,0,0,0,3.78,0,0,0
2002/12/7 0:15,0,0,0,0,0,0,0,0
2002/12/7 0:30,0,0,0,0,0,0,0,0
2002/12/7 0:45,0,0,0,0,0,0,0,0
2002/12/7 1:00,0,0,0,0,0,0,0,0
2002/12/7 1:15,0,0,0,0,0,0,0,0
2002/12/7 1:30,0,0,0,0,0,0,0,0
2002/12/7 1:45,0,0,0,0,0,0,0,0
2002/12/7 2:00,0,0,0,0,0,0,0,0
2002/12/7 2:15,0,0,0,0,0,0,0,0
2002/12/7 2:30,0,0,0,0,0,0,0,0
2002/12/7 2:45,0,0,0,0,0,0,0,0
2002/12/7 3:00,0,0,0,0,0,0,0,0
2002/12/7 3:15,0,0,0,0,0,0,0,0
2002/12/7 3:30,0,0,0,0,0,0,0,0
2002/12/7 3:45,0,0,0,0,0,0,0,0
2002/12/7 4:00,0,0,0,0,0,0,0,0
2002/12/7 4:15,0,0,0,0,0,0,0,0
2002/12/7 4:30,0,0,0,0,0,0,0,0
2002/12/7 4:45,0,0,0,0,0,0,0,0
2002/12/7 5:00,0,0,0,0,0,0,0,0
2002/12/7 5:15,0,0,0,0,0,0,0,0
2002/12/7 5:30,0,0,0,0,0,0,0,0
2002/12/7 5:45,0.00009821,0,0,0,11.94,0,0,0
2002/12/7 6:00,0.00025921,0,0,0,31.77,0,0,0
2002/12/7 6:15,0.00025921,0,0,0,31.62,0,0,0
2002/12/7 6:30,0.0002576,0,0,0,31.46,0,0,0
2002/12/7 6:45,0.00024633,0,0,0,30.23,0,0,0
2002/12/7 7:00,0.00024794,0,0,0,30.37,0,0,0
2002/12/7 7:15,0.00023667,0,0.0001127,0,29.02,0,13.71,0
2002/12/7 7:30,0.00022862,0,0,0,28.03,0,0,0
2002/12/7 7:45,0.00022218,0,0,0,27.09,0,0,0
2002/12/7 8:00,0.00020769,0,0,0,25.38,0,0,0
2002/12/7 8:15,0.00022057,0,0,0,26.92,0,0,0
2002/12/7 8:30,0.00021574,0,0,0,26.4,0,0,0
2002/12/7 8:45,0.00013041,0,0.00007567,0,16.05,0,9.26,0
2002/12/7 9:00,0.0000966,0,0,0,11.72,0,0,0
2002/12/7 9:15,0,0,0,0,0,0,0,0
2002/12/7 9:30,0.00009982,0,0.00010465,0,12.15,0,12.72,0